This is the latest recevied weather packets stored in our database for station/object KC8JWT. If no packets are shown the sender has not sent any weather packets the latest 10 day(s).
| Time | Temp. | Humidity | Pressure | Rain* | Wind** | Luminosity | Snow |
|---|---|---|---|---|---|---|---|
| 1778185154 | 18.33° C | 26% | 1011.5 hPa | 0 mm | - | 646 W/m² | - |
| 1778184850 | 18.89° C | 28% | 1011.7 hPa | 0 mm | - | 675 W/m² | - |
| 1778184547 | 18.89° C | 28% | 1011.7 hPa | 0 mm | - | 659 W/m² | - |
| 1778184243 | 18.33° C | 28% | 1011.8 hPa | 0 mm | - | 675 W/m² | - |
| 1778183938 | 18.33° C | 29% | 1011.8 hPa | 0 mm | - | 691 W/m² | - |
| 1778183636 | 17.78° C | 27% | 1011.6 hPa | 0 mm | - | 702 W/m² | - |
| 1778183334 | 18.89° C | 27% | 1011.8 hPa | 0 mm | - | 710 W/m² | - |
| 1778183030 | 18.33° C | 28% | 1011.7 hPa | 0 mm | - | 720 W/m² | - |
| 1778182726 | 18.33° C | 28% | 1011.7 hPa | 0 mm | - | 731 W/m² | - |
| 1778182424 | 18.33° C | 28% | 1011.9 hPa | 0 mm | - | 754 W/m² | - |
| 1778182119 | 18.33° C | 29% | 1011.9 hPa | 0 mm | - | 760 W/m² | - |
| 1778181816 | 18.89° C | 30% | 1011.8 hPa | 0 mm | - | 769 W/m² | - |
| 1778181513 | 18.33° C | 30% | 1012.1 hPa | 0 mm | - | 773 W/m² | - |
| 1778181209 | 18.33° C | 33% | 1012.4 hPa | 0 mm | - | 799 W/m² | - |
| 1778180906 | 18.89° C | 30% | 1012.3 hPa | 0 mm | - | 827 W/m² | - |
| 1778180604 | 17.78° C | 34% | 1012.3 hPa | 0 mm | - | 858 W/m² | - |
| 1778180303 | 17.22° C | 30% | 1012.3 hPa | 0 mm | - | 879 W/m² | - |
| 1778179999 | 17.22° C | 31% | 1012.5 hPa | 0 mm | - | 257 W/m² | - |
| 1778179696 | 17.22° C | 33% | 1012.2 hPa | 0 mm | - | 921 W/m² | - |
| 1778179394 | 18.33° C | 31% | 1012.4 hPa | 0 mm | - | 191 W/m² | - |
| 1778179090 | 18.89° C | 30% | 1012.3 hPa | 0 mm | - | 943 W/m² | - |
| 1778178788 | 18.89° C | 32% | 1012.2 hPa | 0 mm | - | 675 W/m² | - |
| 1778178485 | 18.89° C | 30% | 1012.3 hPa | 0 mm | - | 940 W/m² | - |
| 1778178181 | 18.33° C | 30% | 1012.1 hPa | 0 mm | - | 948 W/m² | - |
| 1778177877 | 17.78° C | 31% | 1012 hPa | 0 mm | - | 961 W/m² | - |
* Rain latest hour (hover to see other rain measurements)
** Current wind speed in m/s (hover to see current wind gust speed)